Location: downtown San Diego
(32.7310°N, 117.1990°W)
Time: 02:08:26
(UTC-07:00)

Cosmos 1536 - Pass Details

Date: 19 May 2017
Orbit: 541 x 561 km, 82.5° (Epoch: 25 September)

Event Time Altitude Azimuth Distance (km) Brightness Sun altitude
Rises 20:33:57 0° 348° (NNW) 2,706 7.1 -10.1°
Reaches altitude 10° 20:36:09 10° 343° (NNW) 1,809 6.2 -10.5°
Maximum altitude 20:40:01 53° 267° (W) 667 3.6 -11.2°
Drops below altitude 10° 20:43:51 10° 190° (S) 1,795 5.2 -11.9°
Enters shadow 20:46:18 -1° 185° (S) 2,797 6.1 -12.3°
